Location: Orlovka
(48.5965°N, 29.5909°E)
Time: 11:35:10
(UTC+00:00)

Daily predictions for brighter satellites

Satellite Brightness Start Highest point End
(mag) Time Altitude Azimuth Time Altitude Azimuth Time Altitude Azimuth
Unknown 4.1 15:29:40 10° W 15:33:45 57° NNW 15:37:51 10° ENE
AQUARIUS 4.4 15:30:05 10° S 15:34:35 79° WSW 15:39:07 10° NNW
Cosmos 2278 Rocket 3.0 15:30:15 10° SSE 15:35:03 29° ESE 15:39:52 10° NE
Unknown 4.1 15:31:22 10° W 15:35:27 56° NNW 15:39:33 10° ENE
ASTEX 1 3.8 15:32:57 10° NNE 15:37:39 41° E 15:42:22 10° SSE
Cosmos 1908 4.1 15:36:46 10° SSE 15:40:06 28° E 15:43:27 10° NNE
Cosmos 1953 2.5 15:36:08 10° SSW 15:40:11 79° W 15:44:17 10° N
Cosmos 1844 3.8 15:35:36 10° SSW 15:41:20 89° WNW 15:47:11 10° NNE
Unknown 4.1 15:37:25 10° W 15:41:29 54° NNW 15:45:33 10° ENE
Unknown 4.1 15:37:40 10° W 15:41:43 54° NNW 15:45:47 10° ENE
Unknown 4.1 15:38:00 10° W 15:42:04 54° NNW 15:46:09 10° ENE
BREEZE-M DEB (TANK) 3.5 15:38:31 10° WNW 15:42:36 85° NNE 15:52:36 10° ESE
Unknown 4.1 15:40:53 10° W 15:44:57 53° NNW 15:49:03 10° ENE
Unknown 4.2 15:43:05 10° W 15:47:09 52° NNW 15:51:14 10° ENE
SKYMED 2 4.0 15:44:28 10° NNE 15:48:36 40° E 15:52:42 10° SSE
Unknown 4.2 15:44:53 10° W 15:48:56 51° NNW 15:52:56 10° ENE
Cosmos 1726 2.2 15:45:53 10° S 15:49:25 50° E 15:52:58 10° NNE
CSL-04 Rocket 3.9 15:45:50 10° SE 15:51:06 49° ENE 15:56:22 10° N
YAOGAN 1 3.0 15:47:28 10° SE 15:51:32 41° ENE 15:55:36 10° N
Unknown 4.2 15:48:13 10° W 15:52:16 50° NNW 15:56:07 11° ENE
Unknown 4.2 15:48:22 10° W 15:52:25 51° N 15:56:16 11° ENE
Unknown 3.2 15:49:28 10° WNW 15:52:51 61° NNE 15:55:53 13° E
CENTAUR R/B 4.2 15:52:15 10° ESE 15:53:04 10° E 15:53:31 10° E
Unknown 4.2 15:49:46 10° W 15:53:49 50° N 15:57:37 12° ENE
Abrixas rocket 3.1 15:51:18 10° SW 15:54:04 32° SSE 15:56:18 14° E
Cosmos 2263 Rocket 4.4 15:50:06 10° W 15:54:15 20° NW 15:58:24 10° N
H-2A R/B 3.9 15:52:50 10° ENE 15:54:47 12° NE 15:56:53 10° NNE
Cosmos 2228 3.2 15:50:27 10° SSW 15:54:49 79° W 15:59:11 10° N
Unknown 4.0 15:51:20 10° WNW 15:54:55 42° N 15:57:57 13° ENE
Lacrosse 5 2.0 15:49:56 10° NW 15:54:57 59° NNE 15:59:49 11° ESE
Cosmos 2084 4.4 15:50:57 10° WSW 15:55:20 49° NW 15:59:40 10° NE
Unknown 4.2 15:53:00 10° W 15:57:03 50° N 16:00:42 12° ENE
Envisat 3.0 15:51:59 10° SSE 15:57:03 82° ENE 16:02:10 10° NNW
FALCON 9 DEB 3.3 15:54:37 10° WNW 15:58:04 60° NNE 16:00:53 15° E
Unknown 4.2 15:56:26 10° W 16:00:28 49° N 16:03:58 13° ENE
Cosmos 1726 Rocket 3.8 15:56:07 10° SSW 16:00:29 74° W 16:04:52 10° N
Unknown 4.2 15:58:08 10° W 16:02:11 48° N 16:05:36 14° ENE
Cosmos 921 Rocket 3.4 15:58:20 10° SSW 16:02:50 73° WNW 16:07:18 10° NNE
Unknown 4.3 15:59:48 10° W 16:03:50 48° N 16:07:12 14° ENE
Unknown 4.3 16:01:29 10° W 16:05:31 48° N 16:08:48 15° ENE
Lacrosse 5 rocket 4.3 16:03:59 10° W 16:05:40 13° SW 16:07:24 10° SSW
Meteor 2-10 3.9 16:00:52 10° S 16:05:53 72° E 16:10:55 10° NNE
Cosmos 1833 Rocket 2.7 16:02:47 10° NNW 16:08:24 66° ENE 16:14:00 10° SE
Unknown 4.3 16:04:51 10° W 16:08:53 47° N 16:12:01 16° ENE
Shenzhou-11 Module 3.8 16:06:49 10° WSW 16:09:00 21° S 16:11:01 11° SE
Unknown 4.3 16:06:35 10° W 16:10:36 47° N 16:13:39 16° ENE
Unknown 3.3 16:07:34 10° WNW 16:11:04 63° NNE 16:13:19 20° E
Unknown 4.3 16:08:11 10° W 16:12:11 47° N 16:15:11 17° ENE
Cosmos 1356 3.4 16:08:48 10° SSW 16:12:14 83° W 16:15:43 10° N
Unknown 4.1 16:10:03 10° WNW 16:12:59 38° SW 16:15:56 10° SE
Cosmos 1328 4.1 16:09:33 10° NNW 16:13:32 71° W 16:17:26 10° S
Unknown 4.3 16:09:48 10° W 16:13:49 46° N 16:16:44 17° ENE
USA 238 DEB 4.1 16:07:48 10° S 16:13:57 40° ESE 16:20:18 10° NE
USA 238 4.1 16:07:55 10° S 16:14:03 40° ESE 16:20:24 10° NE
Falcon 9 debris 3.1 16:10:42 10° WNW 16:14:09 76° NNE 16:16:20 21° ESE
Unknown 4.3 16:10:36 10° W 16:14:37 46° N 16:17:30 17° ENE
BREEZE-M DEB (TANK) 3.5 16:11:34 10° SW 16:15:46 30° SSE 16:16:55 21° ESE
Unknown 4.3 16:12:58 10° W 16:16:59 46° N 16:19:47 18° ENE
Cosmos 1939 Rocket 3.3 16:16:29 10° SE 16:20:15 40° ENE 16:24:05 10° N
Unknown 4.3 16:16:21 10° W 16:20:22 46° N 16:23:00 19° ENE
USA 116 3.4 16:17:32 10° NNE 16:20:38 48° E 16:23:58 10° S
YAOGAN 6 2.7 16:17:31 10° S 16:21:10 81° WSW 16:24:49 10° NNW
Unknown 4.3 16:18:01 10° W 16:22:01 46° N 16:24:35 20° ENE
Unknown 4.1 16:19:01 10° WNW 16:22:43 44° N 16:24:41 23° ENE
Cosmos 2058 Rocket 3.5 16:19:19 10° SSW 16:23:38 64° WNW 16:27:59 10° N
Unknown 4.3 16:19:56 10° WNW 16:23:56 45° N 16:26:24 21° ENE
Unknown 4.3 16:21:21 10° W 16:25:21 45° N 16:27:47 21° ENE
Unknown 4.3 16:23:00 10° W 16:27:00 45° N 16:29:21 22° ENE
COBE Rocket 4.4 16:21:57 10° N 16:27:07 69° WNW 16:32:08 10° SSW
Unknown 4.3 16:26:24 10° WNW 16:30:24 45° N 16:32:36 23° ENE
Cosmos 1339 Rocket 4.4 16:25:42 10° S 16:31:46 81° E 16:37:58 10° N
Unknown 4.3 16:28:03 10° WNW 16:32:03 45° N 16:34:11 24° ENE
CZ-2D R/B 3.2 16:28:54 10° SSE 16:32:41 60° ENE 16:36:32 10° N
Unknown 3.1 16:29:36 10° WNW 16:33:07 86° NNE 16:34:32 34° ESE
SJ 16-02 2.7 16:30:06 10° N 16:33:29 21° NE 16:33:33 21° NE
Unknown 4.3 16:29:44 10° WNW 16:33:44 45° N 16:35:47 25° NE
Cosmos 1300 3.2 16:30:48 10° SSE 16:34:19 36° E 16:37:51 10° NNE
Unknown 4.3 16:31:23 10° WNW 16:35:23 44° N 16:37:22 25° NE
Cosmos 1459 Rocket 4.3 16:30:05 10° N 16:36:01 44° ENE 16:42:00 10° SE
COSMO-SKYMED 1 2.9 16:32:26 10° N 16:36:47 67° WNW 16:41:05 10° SSW
Cosmos 2082 Rocket 2.1 16:31:13 10° NNW 16:36:58 76° ENE 16:42:39 10° SSE
Cosmos 1461 3.2 16:33:27 10° NW 16:37:30 67° SW 16:41:20 12° SSE
NOSS 3-2 (A) 3.7 16:32:17 10° S 16:37:44 45° ESE 16:42:23 17° NE
CSL-04 Debris 4.4 16:32:34 10° S 16:38:01 75° WSW 16:43:33 10° NNW
Unknown 4.3 16:34:49 10° WNW 16:38:49 44° N 16:40:38 27° NE
Ariane Rocket 3.0 16:34:41 10° SSE 16:39:42 61° ENE 16:44:45 10° N
Unknown 4.3 16:35:58 10° WNW 16:39:57 44° N 16:41:43 28° NE
Unknown 4.0 16:36:31 10° WNW 16:40:18 46° N 16:41:36 32° ENE
Unknown 4.3 16:36:39 10° WNW 16:40:39 44° N 16:42:21 28° NE
Unknown 4.3 16:37:22 10° WNW 16:41:17 44° N 16:42:48 30° NE
Unknown 4.3 16:38:20 10° WNW 16:42:20 44° N 16:43:59 29° NE
Unknown 4.3 16:40:44 10° WNW 16:44:40 44° N 16:46:08 30° NE
NOSS 3-3 (A) 4.5 16:37:15 10° NW 16:44:41 82° NE 16:51:35 16° SE
Cosmos 1605 Rocket 4.3 16:38:32 10° NNW 16:44:41 68° W 16:50:44 10° S
NOSS 3-3 (C) 4.5 16:37:20 10° NW 16:44:46 82° NE 16:51:38 16° SE
Unknown 4.3 16:41:28 10° WNW 16:45:29 44° N 16:47:00 30° NE
Unknown 4.3 16:44:49 10° WNW 16:48:48 44° N 16:50:11 32° NE
Meteor 2-1 Rocket 4.5 16:43:42 10° SSE 16:48:49 41° E 16:54:01 10° NNE
CZ-4 R/B 2.8 16:45:10 10° S 16:49:08 41° W 16:53:10 10° NNW
Cosmos 2084 Rocket 3.4 16:44:55 10° NW 16:49:23 76° NE 16:51:04 37° SE
ATLAS CENTAUR R/B 3.6 16:47:48 10° NNW 16:50:13 14° NNE 16:51:06 13° NNE
Unknown 4.3 16:46:28 10° WNW 16:50:29 44° N 16:51:46 33° NE
Unknown 4.3 16:48:09 10° WNW 16:52:09 44° N 16:53:23 34° NE
Unknown 4.3 16:49:48 10° WNW 16:53:47 44° N 16:54:57 35° NE
Cosmos 44 4.1 16:50:20 10° S 16:54:03 31° SE 16:54:03 31° SE
Cosmos 1937 Rocket 4.0 16:50:55 10° N 16:55:43 37° ENE 16:56:19 36° ENE
Cosmos 1727 Rocket 3.9 16:51:19 10° S 16:57:31 87° E 17:03:43 10° N
Cosmos 990 Rocket 4.2 16:53:01 10° NNW 16:58:05 49° ENE 16:59:21 40° ESE
HJ-1C 3.3 16:58:57 71° NE 16:58:57 71° NE 17:02:11 10° N
BREEZE M DEB (TANK) 3.6 16:56:57 10° W 16:59:29 34° SSW 17:02:09 21° SSE
Unknown 4.3 16:56:27 10° WNW 17:00:28 44° N 17:01:19 38° NE
Okean 3 Rocket 3.8 16:57:11 10° N 17:01:34 47° ENE 17:01:34 47° ENE
In-Cosmos 22 Rocket 4.1 16:56:29 10° N 17:01:52 62° ENE 17:04:57 26° SSE
Unknown 4.2 16:58:11 10° WNW 17:02:11 45° N 17:02:57 39° NE
Resurs 01 Rocket 3.8 17:04:54 13° NNE 17:04:54 13° NNE 17:05:36 10° NNE
NOSS 3-2 (C) 3.6 16:57:20 10° S 17:02:47 44° ESE 17:04:26 36° E
Cosmos 2173 Rocket 3.9 16:56:51 10° N 17:03:06 69° ENE 17:09:15 10° SSE
Unknown 4.2 16:59:47 10° WNW 17:03:47 45° N 17:04:30 40° NNE
Unknown 4.2 17:01:28 10° WNW 17:05:28 45° N 17:06:06 41° NNE
ADEOS Rocket 3.8 16:59:54 10° NNE 17:06:58 38° E 17:13:33 10° SSE
Unknown 4.2 17:03:09 10° WNW 17:07:09 45° N 17:07:42 42° NNE
Cosmos 1802 Rocket 4.0 17:02:05 10° N 17:08:31 63° ENE 17:12:49 22° SSE
Unknown 4.2 17:06:29 10° WNW 17:10:29 45° N 17:10:54 43° NNE
Cosmos 1076 Rocket 3.8 17:07:16 10° NNW 17:11:38 68° W 17:15:56 10° S
Starlink (trailer) 4.2 17:08:08 10° WNW 17:12:09 45° N 17:12:29 44° NNE
ATLAS 5 CENTAUR R/B 4.0 17:09:18 10° WNW 17:12:42 19° NNW 17:16:08 11° NNE
Unknown 4.2 17:09:47 10° WNW 17:13:48 45° N 17:14:03 45° NNE
SJ-6B 4.5 17:17:14 22° N 17:17:14 22° N 17:18:44 10° N
Unknown 4.2 17:11:29 10° WNW 17:15:30 46° N 17:15:42 45° NNE
Cosmos 2123 Rocket 4.4 17:16:31 40° ENE 17:16:31 40° ENE 17:21:28 10° NNE
SPOT 3 Rocket 3.6 17:16:37 52° ENE 17:16:47 52° ENE 17:21:51 10° N
Cosmos 1812 Rocket 4.1 17:13:46 10° SSW 17:18:08 59° WNW 17:22:34 10° N
Cosmos 2278 Rocket 2.9 17:13:19 10° SW 17:18:51 53° NW 17:24:26 10° NNE
Cosmos 2297 3.6 17:15:44 10° SSW 17:21:19 62° ESE 17:22:44 47° ENE
Unknown 4.2 17:17:31 10° WNW 17:21:27 47° N 17:21:27 47° N
Unknown 4.2 17:17:43 10° WNW 17:21:36 46° N 17:21:36 46° N
Unknown 4.2 17:18:06 10° WNW 17:22:01 46° N 17:22:01 46° N
Cosmos 1725 Rocket 4.0 17:18:20 10° N 17:24:32 56° ENE 17:25:24 52° ESE
Cosmos 1000 Rocket 4.3 17:18:31 10° S 17:24:41 77° E 17:30:58 10° NNE
Unknown 4.3 17:20:57 10° WNW 17:24:45 47° N 17:24:45 47° N
Unknown 4.3 17:23:11 10° WNW 17:26:53 46° N 17:26:53 46° N
Cosmos 2100 Rocket 4.1 17:22:37 10° NNW 17:28:49 76° W 17:34:57 10° S
Unknown 4.3 17:24:57 10° WNW 17:28:35 46° NNW 17:28:35 46° NNW
Abrixas rocket 4.3 17:26:41 10° W 17:28:08 25° WSW 17:28:08 25° WSW
Cosmos 2058 3.5 17:27:21 10° NNW 17:31:30 56° W 17:32:43 40° SSW
Unknown 4.4 17:28:17 10° WNW 17:31:46 45° NNW 17:31:46 45° NNW
Unknown 4.4 17:28:26 10° WNW 17:31:55 45° NNW 17:31:55 45° NNW
ATLAS 3B R/B 2.8 17:26:39 10° SSW 17:32:24 48° SE 17:32:24 48° SE
H-2A R/B 2.1 17:33:28 61° NE 17:33:28 61° NE 17:38:31 10° N
Unknown 4.3 17:29:28 10° WNW 17:32:10 46° WNW 17:32:10 46° WNW
Unknown 4.5 17:29:50 10° WNW 17:33:16 45° NNW 17:33:16 45° NNW
Cosmos 2151 3.9 17:32:16 10° N 17:35:05 40° N 17:35:05 40° N
Lacrosse 5 2.9 17:33:07 10° WNW 17:37:47 38° SW 17:39:03 33° SSW
ARGOS 3.2 17:42:22 62° NNE 17:42:22 62° NNE 17:47:10 10° N
CENTAUR R/B 2.7 17:36:05 10° SSW 17:40:48 51° SSE 17:40:48 51° SSE
Cosmos 1898 Rocket 3.7 17:39:17 10° NNW 17:44:32 70° WSW 17:45:15 61° SSW
Cosmos 2016 Rocket 4.0 17:41:19 10° N 17:47:38 84° W 17:49:50 44° S
SL-08 R/B 4.3 17:48:59 10° N 17:55:08 86° W 17:55:45 74° S
USA 238 DEB 4.2 17:58:04 10° WSW 18:04:43 57° NW 18:08:12 30° NNE
USA 238 4.1 17:58:11 10° WSW 18:04:49 58° NW 18:08:16 30° NNE
SJ 16-02 3.1 18:08:07 10° NNW 18:10:33 30° NW 18:10:33 30° NW
CZ-2C R/B 4.0 18:22:04 49° NNW 18:22:04 49° NNW 18:26:10 10° NNW
Cosmos 2082 Rocket 4.5 18:16:27 10° NW 18:20:25 20° W 18:24:20 10° SW
NOSS 3-2 (A) 4.2 18:22:47 10° WSW 18:28:34 48° NW 18:29:49 43° N
ATLAS CENTAUR R/B 4.1 18:26:12 10° NNW 18:27:18 16° NNW 18:27:18 16° NNW
Resurs 01 Rocket 4.4 18:42:28 14° NNW 18:42:28 14° NNW 18:43:06 10° NNW
ADEOS Rocket 4.0 18:45:12 10° N 18:52:40 55° WNW 18:59:38 10° SW
ATLAS 5 CENTAUR R/B 4.5 18:55:59 10° NNW 18:57:39 15° NNW 18:57:39 15° NNW
H-2A R/B 4.4 19:14:06 20° WNW 19:14:06 20° WNW 19:17:07 10° NW
ATLAS 3B R/B 4.5 19:17:26 10° WSW 19:19:45 22° WSW 19:19:45 22° WSW
CENTAUR R/B 4.5 23:20:12 30° NE 23:20:12 30° NE 23:26:01 10° E
